San Antonio Stinson, TX

9:21 AM CDT on June 27, 2017 (GMT -0500)
Stinson Municipal

Weather History for KSSF - December, 2013

Change the Weather History Date:

Friday, December 13, 2013

  Actual Average Record
Temperature  
Mean Temperature 50 °F -  
Max Temperature 52 °F 62 °F 75 °F (2006)
Min Temperature 48 °F 39 °F 30 °F (2000)
Degree Days  
Heating Degree Days 15    
Moisture  
Dew Point 43 °F    
Average Humidity 79    
Maximum Humidity 94    
Minimum Humidity 56    
Precipitation  
Precipitation 0.01 in - - ()
Sea Level Pressure  
Sea Level Pressure 30.03 in    
Wind  
Wind Speed 2 mph (West)    
Max Wind Speed 9 mph    
Max Gust Speed -    
Visibility 5 miles    
Events Rain    
Averages and records for this station are not official NWS values.
T = Trace of Precipitation, MM = Missing Value Source: NWS Daily Summary

Daily Weather History Graph

Daily Weather History Graph

Search for Another Location

Airport or City:

Trip Planner

Search our weather history database for the weather conditions in past years. The results will help you decide how hot, cold, wet, or windy it might be!

Date:

Astronomy

Dec. 13, 2013 Rise Set
Actual Time 7:19 AM CST 5:36 PM CST
Civil Twilight 6:53 AM CST 6:03 PM CST
Nautical Twilight 6:23 AM CST 6:32 PM CST
Astronomical Twilight 5:54 AM CST 7:01 PM CST
Moon 3:10 PM CST (12/13) 3:55 AM CST (12/13)
Length of Visible Light 11h 09m
Length of Day
10h 17m
Waxing Gibbous, 88% of the Moon is Illuminated
Dec 13
Waxing Gibbous
Dec 17
Full
Dec 25
Last Quarter
Jan 1
New
Jan 7
First Quarter

Hourly Weather History & Observations

Time (CST) Temp. Dew Point Humidity Pressure Visibility Wind Dir Wind Speed Gust Speed Precip Events Conditions
12:53 AM 48.9 °F 35.1 °F 59% 30.30 in 10.0 mi Calm Calm - N/A   Overcast
1:53 AM 48.9 °F 35.1 °F 59% 30.27 in 10.0 mi Calm Calm - N/A   Overcast
2:53 AM 48.9 °F 35.1 °F 59% 30.25 in 10.0 mi Calm Calm - N/A   Overcast
3:53 AM 48.9 °F 35.1 °F 59% 30.23 in 10.0 mi Calm Calm - N/A   Overcast
4:53 AM 48.9 °F 36.0 °F 61% 30.20 in 10.0 mi ESE 3.5 mph - N/A   Overcast
5:53 AM 48.9 °F 36.0 °F 61% 30.17 in 10.0 mi Calm Calm - N/A   Overcast
6:53 AM 48.9 °F 36.0 °F 61% 30.16 in 10.0 mi SE 3.5 mph - N/A   Overcast
7:13 AM 48.2 °F 35.6 °F 62% 30.14 in 10.0 mi SE 4.6 mph - N/A   Overcast
7:53 AM 48.9 °F 37.0 °F 64% 30.15 in 10.0 mi Calm Calm - N/A   Overcast
8:53 AM 50.0 °F 37.0 °F 61% 30.12 in 10.0 mi Calm Calm - N/A   Overcast
9:53 AM 51.1 °F 36.0 °F 56% 30.12 in 10.0 mi Calm Calm - N/A   Overcast
10:53 AM 52.0 °F 37.0 °F 57% 30.10 in 10.0 mi Calm Calm - N/A   Overcast
11:53 AM 51.1 °F 42.1 °F 71% 30.07 in 6.0 mi WSW 4.6 mph - 0.00 in   Haze
12:27 PM 50.0 °F 44.6 °F 82% 30.03 in 2.0 mi SW 3.5 mph - 0.00 in Rain Light Rain
12:43 PM 48.2 °F 44.6 °F 87% 30.03 in 1.8 mi West 4.6 mph - 0.00 in Rain Light Rain
12:53 PM 48.9 °F 45.0 °F 86% 30.02 in 1.5 mi WNW 4.6 mph - 0.00 in   Overcast
1:20 PM 48.2 °F 46.4 °F 93% 29.98 in 1.2 mi Calm Calm - 0.00 in   Overcast
1:53 PM 48.9 °F 46.0 °F 90% 29.97 in 1.5 mi West 3.5 mph - 0.00 in Rain Light Rain
2:08 PM 50.0 °F 46.4 °F 87% 29.94 in 1.5 mi Calm Calm - 0.00 in Rain Light Rain
2:53 PM 50.0 °F 46.9 °F 89% 29.93 in 1.2 mi Calm Calm - 0.01 in   Overcast
3:53 PM 50.0 °F 46.9 °F 89% 29.91 in 1.2 mi West 4.6 mph - N/A   Overcast
4:53 PM 50.0 °F 46.9 °F 89% 29.92 in 1.0 mi WNW 4.6 mph - N/A   Overcast
5:25 PM 50.0 °F 46.4 °F 87% 29.93 in 0.8 mi WNW 5.8 mph - N/A   Overcast
5:35 PM 50.0 °F 46.4 °F 87% 29.93 in 1.0 mi West 4.6 mph - N/A   Overcast
5:53 PM 50.0 °F 48.0 °F 93% 29.96 in 1.8 mi NW 5.8 mph - N/A   Overcast
6:13 PM 50.0 °F 48.2 °F 94% 29.96 in 2.5 mi NW 3.5 mph - N/A   Overcast
6:25 PM 51.8 °F 48.2 °F 88% 29.95 in 3.0 mi Calm Calm - N/A   Overcast
6:53 PM 51.1 °F 48.0 °F 89% 29.95 in 3.0 mi Calm Calm - N/A   Overcast
7:02 PM 51.8 °F 48.2 °F 88% 29.94 in 2.5 mi South 3.5 mph - N/A   Overcast
7:53 PM 51.1 °F 48.9 °F 92% 29.96 in 3.0 mi Calm Calm - N/A   Overcast
7:59 PM 51.8 °F 48.2 °F 88% 29.96 in 2.5 mi Calm Calm - N/A   Overcast
8:33 PM 51.8 °F 48.2 °F 88% 29.95 in 1.8 mi Calm Calm - N/A   Overcast
8:53 PM 51.1 °F 48.9 °F 92% 29.95 in 2.0 mi Calm Calm - N/A   Overcast
9:23 PM 51.8 °F 48.2 °F 88% 29.95 in 2.5 mi Calm Calm - N/A   Overcast
9:53 PM 51.1 °F 48.9 °F 92% 29.94 in 2.0 mi West 3.5 mph - N/A   Overcast
10:53 PM 51.1 °F 48.9 °F 92% 29.94 in 3.0 mi West 3.5 mph - N/A   Overcast
11:53 PM 52.0 °F 48.9 °F 89% 29.94 in 4.0 mi WNW 9.2 mph - N/A   Overcast